ПЕТРИЧ - 3 етаж/Градина/Спалня Measurements

Back to Overview

Timestamp Temp In Hum In Temp 1 Hum 1 Temp 2 Hum 2 Temp 3 Hum 3
11/26/2020 11:27:18 AM 24,7 C 32.0% 5,1 C 73.0% 3,5 C 78.0% 21,8 C 45.0%
11/26/2020 11:20:14 AM 24,6 C 32.0% 5,2 C 74.0% 3,4 C 79.0% 21,8 C 44.0%
11/26/2020 11:13:18 AM 24,5 C 32.0% 4,9 C 75.0% 3,3 C 79.0% 21,7 C 45.0%
11/26/2020 11:06:13 AM 24,5 C 32.0% 4,3 C 77.0% 3,1 C 79.0% 21,7 C 45.0%
11/26/2020 10:59:16 AM 24,4 C 32.0% 3,9 C 78.0% 2,9 C 79.0% 21,7 C 45.0%
11/26/2020 10:52:19 AM 24,3 C 31.0% 3,4 C 80.0% 2,8 C 80.0% 21,7 C 44.0%
11/26/2020 10:45:15 AM 24,2 C 31.0% 3,1 C 79.0% 2,6 C 80.0% 21,7 C 44.0%
11/26/2020 10:38:13 AM 24,2 C 31.0% 3,0 C 80.0% 2,3 C 81.0% 21,7 C 42.0%
11/26/2020 10:32:39 AM 24,1 C 31.0% 2,9 C 80.0% 2,2 C 81.0% 21,7 C 36.0%
11/26/2020 10:25:36 AM 24,0 C 31.0% 2,5 C 82.0% 2,0 C 81.0% 21,6 C 36.0%
11/26/2020 10:18:36 AM 24,0 C 31.0% 2,3 C 82.0% 1,9 C 81.0% 21,6 C 36.0%
11/26/2020 10:11:38 AM 23,9 C 31.0% 2,2 C 82.0% 1,7 C 81.0% 21,6 C 36.0%
11/26/2020 10:04:37 AM 23,8 C 32.0% 1,9 C 81.0% 1,5 C 80.0% 21,5 C 36.0%
11/26/2020 9:57:41 AM 23,8 C 32.0% 1,8 C 82.0% 1,3 C 80.0% 21,5 C 37.0%
11/26/2020 9:50:38 AM 23,7 C 32.0% 1,5 C 82.0% 1,1 C 80.0% 21,4 C 37.0%
11/26/2020 9:43:40 AM 23,6 C 32.0% 1,3 C 82.0% 0,8 C 81.0% 21,4 C 37.0%
11/26/2020 9:36:35 AM 23,4 C 32.0% 1,1 C 83.0% 0,6 C 81.0% 21,3 C 37.0%
11/26/2020 9:29:37 AM 23,3 C 32.0% 0,6 C 84.0% 0,4 C 81.0% 21,2 C 37.0%
11/26/2020 9:22:35 AM 23,3 C 32.0% 0,3 C 84.0% 0,3 C 81.0% 21,2 C 37.0%
11/26/2020 9:15:38 AM 23,2 C 33.0% 0,1 C 85.0% 0,3 C 81.0% 21,1 C 37.0%
11/26/2020 9:08:38 AM 23,2 C 33.0% 0,1 C 85.0% 0,3 C 80.0% 21,0 C 37.0%
11/26/2020 9:01:36 AM 23,1 C 33.0% 0,0 C 85.0% 0,2 C 80.0% 21,0 C 37.0%
11/26/2020 8:54:36 AM 23,1 C 33.0% -0,2 C 85.0% 0,1 C 80.0% 21,0 C 37.0%
11/26/2020 8:47:38 AM 23,1 C 33.0% -0,4 C 86.0% 0,0 C 81.0% 20,9 C 37.0%
11/26/2020 8:40:37 AM 23,0 C 33.0% -0,6 C 87.0% 0,0 C 81.0% 20,9 C 37.0%
11/26/2020 8:33:41 AM 22,9 C 33.0% -0,9 C 88.0% 0,0 C 80.0% 20,8 C 37.0%
11/26/2020 8:26:37 AM 22,9 C 33.0% -1,2 C 89.0% -0,1 C 81.0% 20,8 C 37.0%
11/26/2020 8:19:38 AM 22,9 C 33.0% -1,5 C 90.0% -0,1 C 81.0% 20,8 C 38.0%
11/26/2020 8:12:38 AM 22,8 C 33.0% -1,7 C 91.0% 0,0 C 81.0% 20,8 C 38.0%
11/26/2020 8:05:36 AM 22,8 C 33.0% -1,7 C 92.0% 0,2 C 81.0% 20,7 C 38.0%
11/26/2020 7:58:40 AM 22,8 C 33.0% -1,8 C 92.0% 0,2 C 81.0% 20,7 C 38.0%
11/26/2020 7:51:37 AM 22,7 C 33.0% -2,0 C 92.0% 0,2 C 81.0% 20,8 C 38.0%
11/26/2020 7:44:38 AM 22,7 C 33.0% -2,2 C 93.0% 0,0 C 81.0% 20,8 C 38.0%
11/26/2020 7:37:38 AM 22,7 C 33.0% -2,4 C 93.0% -0,1 C 81.0% 20,7 C 38.0%
11/26/2020 7:30:38 AM 22,7 C 33.0% -2,2 C 93.0% 0,0 C 81.0% 20,8 C 38.0%
11/26/2020 7:23:35 AM 22,8 C 33.0% -2,3 C 93.0% 0,0 C 82.0% 20,8 C 38.0%
11/26/2020 7:16:32 AM 22,8 C 33.0% -2,3 C 93.0% 0,0 C 81.0% 20,8 C 38.0%
11/26/2020 7:09:33 AM 22,8 C 34.0% -2,0 C 93.0% 0,0 C 82.0% 20,8 C 38.0%
11/26/2020 7:02:33 AM 22,8 C 34.0% -2,1 C 94.0% 0,2 C 82.0% 20,8 C 38.0%
11/26/2020 6:55:28 AM 22,8 C 34.0% -1,9 C 94.0% 0,3 C 82.0% 20,8 C 38.0%
11/26/2020 6:48:30 AM 22,8 C 34.0% -1,9 C 94.0% 0,1 C 83.0% 20,8 C 38.0%
11/26/2020 6:41:26 AM 22,9 C 34.0% -1,9 C 94.0% 0,0 C 82.0% 20,8 C 38.0%
11/26/2020 6:34:30 AM 22,8 C 34.0% -1,9 C 94.0% 0,1 C 82.0% 20,8 C 38.0%
11/26/2020 6:27:28 AM 22,9 C 34.0% -2,1 C 94.0% 0,1 C 82.0% 20,8 C 38.0%
11/26/2020 6:20:27 AM 22,9 C 34.0% -2,1 C 94.0% 0,0 C 82.0% 20,8 C 38.0%
11/26/2020 6:13:26 AM 22,9 C 34.0% -2,3 C 94.0% 0,2 C 81.0% 20,8 C 39.0%
11/26/2020 6:06:27 AM 22,9 C 34.0% -2,2 C 93.0% 0,3 C 81.0% 20,8 C 38.0%
11/26/2020 5:59:28 AM 22,9 C 34.0% -2,1 C 93.0% 0,3 C 81.0% 20,8 C 39.0%
11/26/2020 5:52:28 AM 22,9 C 34.0% -2,1 C 93.0% 0,3 C 81.0% 20,8 C 39.0%
11/26/2020 5:45:26 AM 22,9 C 34.0% -2,0 C 93.0% 0,3 C 81.0% 20,9 C 39.0%
11/26/2020 5:38:30 AM 22,9 C 34.0% -1,8 C 93.0% 0,4 C 81.0% 20,8 C 39.0%
11/26/2020 5:31:22 AM 22,9 C 34.0% -1,7 C 93.0% 0,6 C 81.0% 20,8 C 39.0%
11/26/2020 5:24:23 AM 22,9 C 34.0% -1,6 C 93.0% 0,7 C 81.0% 20,8 C 39.0%
11/26/2020 5:17:23 AM 22,9 C 34.0% -1,9 C 93.0% 0,7 C 81.0% 20,9 C 39.0%
11/26/2020 5:10:23 AM 22,9 C 34.0% -1,9 C 93.0% 0,7 C 81.0% 20,9 C 39.0%
11/26/2020 5:03:26 AM 22,9 C 34.0% -1,9 C 93.0% 0,7 C 81.0% 20,9 C 39.0%
11/26/2020 4:56:23 AM 23,0 C 34.0% -1,8 C 92.0% 0,7 C 81.0% 20,8 C 39.0%
11/26/2020 4:49:24 AM 23,0 C 34.0% -1,7 C 92.0% 0,6 C 81.0% 20,9 C 39.0%
11/26/2020 4:42:25 AM 23,0 C 34.0% -1,4 C 92.0% 0,6 C 82.0% 20,9 C 39.0%
11/26/2020 4:35:26 AM 23,0 C 34.0% -1,3 C 93.0% 0,7 C 81.0% 20,9 C 39.0%
11/26/2020 4:28:26 AM 23,0 C 34.0% -1,4 C 93.0% 0,7 C 81.0% 20,9 C 39.0%
11/26/2020 4:21:22 AM 23,0 C 34.0% -1,7 C 93.0% 0,7 C 81.0% 20,9 C 39.0%
11/26/2020 4:14:23 AM 23,0 C 34.0% -1,6 C 92.0% 0,7 C 81.0% 20,9 C 40.0%
11/26/2020 4:07:25 AM 23,0 C 34.0% -1,5 C 92.0% 0,8 C 81.0% 20,9 C 40.0%
11/26/2020 4:00:23 AM 23,0 C 34.0% -1,2 C 92.0% 1,0 C 81.0% 20,9 C 40.0%
11/26/2020 3:53:24 AM 23,1 C 34.0% -1,1 C 93.0% 1,2 C 81.0% 20,9 C 40.0%
11/26/2020 3:46:26 AM 23,0 C 34.0% -1,2 C 93.0% 1,2 C 81.0% 20,9 C 40.0%
11/26/2020 3:39:22 AM 23,0 C 34.0% -1,4 C 93.0% 1,1 C 81.0% 20,9 C 40.0%
11/26/2020 3:32:25 AM 23,0 C 34.0% -1,4 C 93.0% 1,1 C 81.0% 20,9 C 40.0%
11/26/2020 3:25:24 AM 23,1 C 35.0% -1,4 C 92.0% 1,1 C 81.0% 20,9 C 40.0%
11/26/2020 3:18:24 AM 23,0 C 35.0% -1,1 C 92.0% 0,9 C 81.0% 20,9 C 40.0%
11/26/2020 3:11:21 AM 23,0 C 35.0% -1,2 C 93.0% 1,2 C 81.0% 20,9 C 40.0%
11/26/2020 3:04:23 AM 23,1 C 35.0% -1,3 C 92.0% 1,2 C 81.0% 20,9 C 40.0%
11/26/2020 2:57:26 AM 23,1 C 35.0% -1,3 C 92.0% 1,2 C 81.0% 20,9 C 40.0%
11/26/2020 2:50:23 AM 23,1 C 35.0% -1,3 C 92.0% 1,3 C 80.0% 20,9 C 40.0%
11/26/2020 2:43:24 AM 23,1 C 35.0% -1,2 C 91.0% 1,2 C 80.0% 20,9 C 40.0%
11/26/2020 2:36:25 AM 23,1 C 35.0% -1,1 C 91.0% 1,1 C 80.0% 20,9 C 40.0%
11/26/2020 2:29:22 AM 23,1 C 35.0% -1,0 C 91.0% 1,3 C 80.0% 20,9 C 40.0%
11/26/2020 2:22:22 AM 23,2 C 35.0% -0,8 C 92.0% 1,2 C 81.0% 20,9 C 41.0%
11/26/2020 2:15:25 AM 23,2 C 35.0% -0,8 C 91.0% 1,2 C 81.0% 20,9 C 41.0%
11/26/2020 2:08:24 AM 23,2 C 35.0% -0,5 C 91.0% 1,3 C 81.0% 20,9 C 41.0%
11/26/2020 2:01:22 AM 23,2 C 35.0% -0,5 C 91.0% 1,5 C 80.0% 21,0 C 41.0%
11/26/2020 1:54:23 AM 23,2 C 35.0% -0,9 C 91.0% 1,7 C 80.0% 20,9 C 41.0%
11/26/2020 1:47:20 AM 23,2 C 35.0% -0,9 C 91.0% 1,7 C 80.0% 21,0 C 41.0%
11/26/2020 1:40:22 AM 23,2 C 35.0% -0,8 C 91.0% 1,7 C 80.0% 20,9 C 41.0%
11/26/2020 1:33:19 AM 23,2 C 35.0% -0,7 C 90.0% 1,9 C 80.0% 20,9 C 41.0%
11/26/2020 1:26:23 AM 23,2 C 35.0% -0,6 C 90.0% 1,9 C 80.0% 20,9 C 41.0%
11/26/2020 1:19:21 AM 23,2 C 35.0% -0,3 C 90.0% 2,0 C 79.0% 21,0 C 41.0%
11/26/2020 1:12:19 AM 23,2 C 35.0% -0,1 C 89.0% 2,1 C 79.0% 20,9 C 41.0%
11/26/2020 1:05:23 AM 23,2 C 35.0% -0,1 C 90.0% 2,2 C 80.0% 20,9 C 41.0%
11/26/2020 12:58:20 AM 23,3 C 35.0% -0,1 C 89.0% 2,1 C 79.0% 21,0 C 41.0%
11/26/2020 12:51:21 AM 23,3 C 35.0% -0,1 C 90.0% 2,2 C 79.0% 21,0 C 41.0%
11/26/2020 12:44:20 AM 23,3 C 35.0% 0,0 C 90.0% 2,2 C 79.0% 21,0 C 42.0%
11/26/2020 12:37:22 AM 23,3 C 35.0% -0,1 C 90.0% 2,4 C 79.0% 21,0 C 42.0%
11/26/2020 12:30:21 AM 23,3 C 35.0% -0,2 C 90.0% 2,6 C 78.0% 21,0 C 42.0%
11/26/2020 12:23:18 AM 23,3 C 35.0% 0,0 C 89.0% 2,7 C 78.0% 21,0 C 42.0%
11/26/2020 12:16:21 AM 23,4 C 35.0% -0,1 C 89.0% 2,6 C 78.0% 20,9 C 42.0%
11/26/2020 12:09:18 AM 23,4 C 35.0% 0,0 C 89.0% 2,6 C 78.0% 21,0 C 42.0%
11/26/2020 12:02:19 AM 23,4 C 35.0% 0,0 C 88.0% 2,8 C 77.0% 21,0 C 42.0%